Location: Dampvalley
(47.9094°N, 6.1967°E)
Time: 04:59:41
(UTC+00:00)

AO-109 - Pass Details

Date: 05 December 2021
Orbit: 478 x 516 km, 60.7° (Epoch: 18 January)

Event Time Altitude Azimuth Distance (km) Brightness Sun altitude
Exits shadow 05:56:19 17° 273° (W) 1,295 ? -11.6°
Maximum altitude 05:57:56 22° 237° (WSW) 1,092 ? -11.3°
Drops below altitude 10° 06:00:49 10° 186° (S) 1,646 ? -10.9°
Sets 06:03:16 0° 170° (S) 2,522 ? -10.5°
